TimePDT,TemperatureF,Dew PointF,Humidity,Sea Level PressureIn,VisibilityMPH,Wind Direction,Wind SpeedMPH,Gust SpeedMPH,PrecipitationIn,Events,Conditions,WindDirDegrees,DateUTC
12:15 AM,48.0,46.0,93,30.11,8.0,NW,4.6,-,N/A,,Overcast,320,2014-03-23 07:15:00
12:26 AM,50.0,48.0,93,30.11,8.0,NW,5.8,-,N/A,,Overcast,310,2014-03-23 07:26:00
12:53 AM,52.0,48.9,89,30.09,8.0,NW,3.5,-,N/A,,Overcast,310,2014-03-23 07:53:00
1:53 AM,52.0,48.9,89,30.09,8.0,Calm,Calm,-,N/A,,Overcast,0,2014-03-23 08:53:00
2:15 AM,52.0,48.9,89,30.09,8.0,Calm,Calm,-,N/A,,Overcast,0,2014-03-23 09:15:00
2:53 AM,51.1,48.0,89,30.06,7.0,SSW,3.5,-,N/A,,Overcast,210,2014-03-23 09:53:00
3:41 AM,48.0,46.9,96,30.07,5.0,Calm,Calm,-,N/A,,Overcast,0,2014-03-23 10:41:00
3:53 AM,48.9,46.9,93,30.06,7.0,Calm,Calm,-,N/A,,Overcast,0,2014-03-23 10:53:00
4:03 AM,50.0,48.0,93,30.07,7.0,Calm,Calm,-,N/A,,Overcast,0,2014-03-23 11:03:00
4:53 AM,52.0,48.9,89,30.07,9.0,Calm,Calm,-,N/A,,Overcast,0,2014-03-23 11:53:00
5:53 AM,52.0,48.9,89,30.07,8.0,Calm,Calm,-,N/A,,Overcast,0,2014-03-23 12:53:00
6:46 AM,52.0,48.0,86,30.10,10.0,Calm,Calm,-,N/A,,Overcast,0,2014-03-23 13:46:00
6:53 AM,52.0,48.0,86,30.09,10.0,SW,3.5,-,N/A,,Overcast,230,2014-03-23 13:53:00
7:53 AM,52.0,48.0,86,30.11,8.0,Calm,Calm,-,N/A,,Overcast,0,2014-03-23 14:53:00
8:53 AM,52.0,48.0,86,30.13,9.0,Calm,Calm,-,N/A,,Overcast,0,2014-03-23 15:53:00
9:37 AM,53.1,48.0,83,30.14,10.0,Calm,Calm,-,N/A,,Overcast,0,2014-03-23 16:37:00
9:53 AM,53.1,48.0,83,30.12,10.0,Calm,Calm,-,N/A,,Overcast,0,2014-03-23 16:53:00
10:53 AM,55.0,48.9,80,30.12,10.0,WSW,3.5,-,N/A,,Mostly Cloudy,240,2014-03-23 17:53:00
11:14 AM,59.0,48.9,69,30.12,10.0,Calm,Calm,-,N/A,,Scattered Clouds,0,2014-03-23 18:14:00
11:53 AM,61.0,48.9,64,30.09,10.0,Calm,Calm,-,N/A,,Partly Cloudy,0,2014-03-23 18:53:00
12:53 PM,64.9,48.9,56,30.06,10.0,Variable,5.8,-,N/A,,Clear,0,2014-03-23 19:53:00
1:53 PM,66.9,50.0,54,30.04,10.0,NW,8.1,-,N/A,,Clear,320,2014-03-23 20:53:00
2:53 PM,68.0,50.0,52,30.01,10.0,WNW,11.5,-,N/A,,Clear,300,2014-03-23 21:53:00
3:53 PM,66.9,51.1,57,30.00,10.0,West,11.5,-,N/A,,Clear,280,2014-03-23 22:53:00
4:53 PM,64.9,52.0,63,30.00,10.0,West,12.7,-,N/A,,Clear,270,2014-03-23 23:53:00
5:53 PM,62.1,52.0,70,30.01,10.0,West,9.2,-,N/A,,Clear,270,2014-03-24 00:53:00
6:53 PM,57.0,50.0,77,30.03,10.0,West,8.1,-,N/A,,Clear,280,2014-03-24 01:53:00
7:53 PM,53.1,50.0,89,30.05,10.0,WNW,8.1,-,N/A,,Clear,290,2014-03-24 02:53:00
8:53 PM,48.9,46.9,93,30.07,8.0,West,5.8,-,N/A,,Scattered Clouds,280,2014-03-24 03:53:00
9:02 PM,50.0,46.9,89,30.08,7.0,WNW,4.6,-,N/A,,Mostly Cloudy,290,2014-03-24 04:02:00
9:36 PM,50.0,48.0,93,30.08,7.0,Calm,Calm,-,N/A,,Overcast,0,2014-03-24 04:36:00
9:53 PM,51.1,48.0,89,30.08,-9999.0,Calm,Calm,-,N/A,,Unknown,0,2014-03-24 04:53:00
10:23 PM,53.1,51.1,93,30.09,7.0,Calm,Calm,-,N/A,,Overcast,0,2014-03-24 05:23:00
10:53 PM,54.0,51.1,90,30.08,7.0,Calm,Calm,-,N/A,,Overcast,0,2014-03-24 05:53:00
11:53 PM,54.0,51.1,90,30.08,7.0,Calm,Calm,-,N/A,,Overcast,0,2014-03-24 06:53:00